Burlington, IA

12:38 AM CST on February 24, 2018 (GMT -0600)
Burlington Regional

Weather History for KBRL - June, 2013

Change the Weather History Date:

Monday, June 24, 2013

  Actual Average Record
Temperature  
Mean Temperature 77 °F 76 °F  
Max Temperature 86 °F 86 °F 100 °F (1937)
Min Temperature 68 °F 65 °F 47 °F (1972)
Degree Days  
Heating Degree Days 0 0  
Month to date heating degree days 15 9  
Since 1 June heating degree days 15 9  
Since 1 July heating degree days 5928 5596  
Cooling Degree Days 12 11  
Month to date cooling degree days 143 192  
Year to date cooling degree days 242 295  
Since 1 June cooling degree days 143 192  
Growing Degree Days 26 (Base 50)    
Moisture  
Dew Point 68 °F    
Average Humidity 81    
Maximum Humidity 93    
Minimum Humidity 69    
Precipitation  
Precipitation 0.57 in 0.15 in 3.25 in (1993)
Month to date precipitation 1.43 3.62  
Year to date precipitation 24.63 17.88  
Sea Level Pressure  
Sea Level Pressure 29.97 in    
Wind  
Wind Speed 7 mph (SE)    
Max Wind Speed 24 mph    
Max Gust Speed 37 mph    
Visibility 8 miles    
Events Fog , Rain , Thunderstorm    
T = Trace of Precipitation, MM = Missing Value Source: NWS Daily Summary

Daily Weather History Graph

Daily Weather History Graph

Search for Another Location

Airport or City:

Trip Planner

Search our weather history database for the weather conditions in past years. The results will help you decide how hot, cold, wet, or windy it might be!

Date:

Astronomy

Jun. 24, 2013 Rise Set
Actual Time 5:34 AM CDT 8:39 PM CDT
Civil Twilight 5:00 AM CDT 9:13 PM CDT
Nautical Twilight 4:17 AM CDT 9:56 PM CDT
Astronomical Twilight 3:27 AM CDT 10:46 PM CDT
Moon 9:41 PM CDT 7:02 AM CDT
Length of Visible Light 16h 12m
Length of Day
15h 05m
Full, 98% of the Moon is Illuminated
Jun 24
Full
Jun 29
Last Quarter
Jul 8
New
Jul 15
First Quarter
Jul 22
Full

Hourly Weather History & Observations

Time (CDT) Temp. Heat Index Dew Point Humidity Pressure Visibility Wind Dir Wind Speed Gust Speed Precip Events Conditions
12:31 AM 71.6 °F - 66.2 °F 83% 29.96 in 10.0 mi SSE 8.1 mph - 0.02 in Rain Light Rain
12:53 AM 71.1 °F - 68.0 °F 90% 29.94 in 10.0 mi South 10.4 mph - 0.02 in   Overcast
1:53 AM 70.0 °F - 66.0 °F 87% 29.95 in 10.0 mi South 5.8 mph - 0.00 in   Clear
2:53 AM 70.0 °F - 66.0 °F 87% 29.94 in 10.0 mi SSW 12.7 mph - N/A   Clear
3:53 AM 70.0 °F - 66.0 °F 87% 29.95 in 10.0 mi SSW 9.2 mph - N/A   Clear
4:53 AM 70.0 °F - 66.9 °F 90% 29.96 in 10.0 mi SSW 8.1 mph - N/A   Clear
5:53 AM 71.1 °F - 68.0 °F 90% 29.99 in 10.0 mi South 4.6 mph - N/A   Clear
6:53 AM 72.0 °F - 68.0 °F 87% 30.01 in 10.0 mi SSE 4.6 mph - N/A   Partly Cloudy
7:53 AM 75.0 °F - 69.1 °F 82% 30.02 in 10.0 mi ESE 6.9 mph - N/A   Clear
8:53 AM 75.0 °F - 69.1 °F 82% 30.05 in 10.0 mi East 10.4 mph - N/A   Scattered Clouds
9:02 AM 75.2 °F - 69.8 °F 83% 30.06 in 10.0 mi ENE 11.5 mph 16.1 mph N/A   Mostly Cloudy
9:53 AM 73.9 °F - 68.0 °F 82% 30.06 in 10.0 mi East 12.7 mph - N/A   Overcast
10:53 AM 75.9 °F - 64.9 °F 69% 30.02 in 10.0 mi ESE 16.1 mph 19.6 mph N/A   Mostly Cloudy
11:53 AM 81.0 °F 84.4 °F 70.0 °F 69% 30.00 in 10.0 mi SE 8.1 mph - N/A   Partly Cloudy
12:53 PM 82.0 °F 86.3 °F 71.1 °F 69% 29.98 in 10.0 mi SSE 10.4 mph - N/A   Partly Cloudy
1:53 PM 84.9 °F 91.4 °F 73.0 °F 67% 29.96 in 10.0 mi South 11.5 mph - N/A   Clear
2:38 PM 82.4 °F 88.2 °F 73.4 °F 74% 29.95 in 8.0 mi South 9.2 mph - 0.00 in Rain , Thunderstorm Light Rain
2:53 PM 78.1 °F - 69.1 °F 74% 29.96 in 4.0 mi Variable 4.6 mph 29.9 mph 0.02 in Rain , Thunderstorm Light Thunderstorms and Rain
3:24 PM 69.8 °F - 66.2 °F 88% 30.05 in 0.8 mi NW 21.9 mph 36.8 mph 0.21 in Rain , Thunderstorm Heavy Thunderstorms and Rain
3:31 PM 68.0 °F - 64.4 °F 88% 30.04 in 0.2 mi WNW 8.1 mph 33.4 mph 0.43 in Fog , Rain , Thunderstorm Heavy Thunderstorms and Rain
3:37 PM 68.0 °F - 66.2 °F 94% 30.03 in 0.8 mi NNW 9.2 mph - 0.50 in Rain , Thunderstorm Heavy Thunderstorms and Rain
3:44 PM 68.0 °F - 66.2 °F 94% 30.03 in 2.0 mi North 5.8 mph - 0.53 in Rain , Thunderstorm Thunderstorms and Rain
3:53 PM 68.0 °F - 66.0 °F 93% 30.01 in 4.0 mi Variable 4.6 mph - 0.55 in Rain , Thunderstorm Light Thunderstorms and Rain
4:15 PM 68.0 °F - 66.2 °F 94% 29.99 in 10.0 mi ENE 4.6 mph - 0.00 in   Scattered Clouds
4:53 PM 69.1 °F - 66.9 °F 93% 29.94 in 10.0 mi ESE 8.1 mph - 0.00 in   Clear
5:53 PM 69.1 °F - 66.9 °F 93% 29.92 in 10.0 mi ENE 3.5 mph - 0.00 in   Partly Cloudy
6:53 PM 70.0 °F - 66.9 °F 90% 29.91 in 10.0 mi SE 6.9 mph - N/A   Clear
7:53 PM 70.0 °F - 66.9 °F 90% 29.87 in 10.0 mi SE 4.6 mph - N/A   Clear
8:53 PM 71.1 °F - 66.9 °F 87% 29.84 in 10.0 mi SE 3.5 mph - N/A   Clear
9:53 PM 72.0 °F - 66.9 °F 84% 29.87 in 10.0 mi ESE 4.6 mph - N/A   Clear
10:53 PM 71.1 °F - 68.0 °F 90% 29.89 in 10.0 mi East 5.8 mph - N/A   Clear
11:53 PM 71.1 °F - 69.1 °F 93% 29.90 in 10.0 mi Calm Calm - N/A   Clear